Hourly Weather Russellville

Today, 21 April, Wednesday

Time Temperature Precipitation Wind Pressure Humidity
00:00 +2°C° 0 mm 1 mps 759 mmHg 86%
01:00 +1°C° 0 mm 1 mps 759 mmHg 87%
02:00 +1°C° 0 mm 1 mps 759 mmHg 88%
03:00 0°C° 0 mm 1 mps 759 mmHg 89%
04:00 +1°C° 0 mm 1 mps 759 mmHg 86%
05:00 +1°C° 0 mm 1 mps 759 mmHg 84%
06:00 +1°C° 0 mm 1 mps 760 mmHg 82%
07:00 +4°C° 0 mm 1 mps 760 mmHg 68%
08:00 +7°C° 0 mm 1 mps 760 mmHg 55%
09:00 +11°C° 0 mm 1 mps 760 mmHg 41%
10:00 +12°C° 0 mm 2 mps 760 mmHg 39%
11:00 +12°C° 0 mm 3 mps 759 mmHg 37%
12:00 +14°C° 0 mm 3 mps 759 mmHg 35%
13:00 +14°C° 0 mm 3 mps 758 mmHg 35%
14:00 +15°C° 0 mm 4 mps 758 mmHg 34%
15:00 +15°C° 0 mm 4 mps 757 mmHg 33%
16:00 +14°C° 0 mm 3 mps 757 mmHg 40%
17:00 +13°C° 0 mm 3 mps 757 mmHg 47%
18:00 +13°C° 0 mm 2 mps 757 mmHg 53%
19:00 +10°C° 0 mm 2 mps 757 mmHg 58%
20:00 +9°C° 0 mm 1 mps 758 mmHg 63%
21:00 +7°C° 0 mm 1 mps 758 mmHg 68%
22:00 +7°C° 0 mm 1 mps 758 mmHg 69%
23:00 +6°C° 0 mm 1 mps 758 mmHg 71%

Tomorrow, 22 April, Thursday

Time Temperature Precipitation Wind Pressure Humidity
00:00 +5°C° 0 mm 0 mps 758 mmHg 72%
01:00 +4°C° 0 mm 0 mps 758 mmHg 74%
02:00 +4°C° 0 mm 0 mps 758 mmHg 76%
03:00 +3°C° 0 mm 0 mps 758 mmHg 78%
04:00 +3°C° 0 mm 0 mps 758 mmHg 77%
05:00 +3°C° 0 mm 0 mps 758 mmHg 77%
06:00 +4°C° 0 mm 1 mps 759 mmHg 76%
07:00 +6°C° 0 mm 1 mps 759 mmHg 66%
08:00 +9°C° 0 mm 1 mps 759 mmHg 56%
09:00 +12°C° 0 mm 1 mps 759 mmHg 46%
10:00 +13°C° 0 mm 1 mps 759 mmHg 43%
11:00 +15°C° 0 mm 2 mps 758 mmHg 41%
12:00 +16°C° 0 mm 2 mps 757 mmHg 38%
13:00 +17°C° 0 mm 2 mps 756 mmHg 38%
14:00 +18°C° 0 mm 2 mps 756 mmHg 38%
15:00 +18°C° 0 mm 2 mps 755 mmHg 38%
16:00 +17°C° 0 mm 2 mps 754 mmHg 45%
17:00 +16°C° 0 mm 2 mps 754 mmHg 52%
18:00 +15°C° 0 mm 2 mps 754 mmHg 59%
19:00 +14°C° 0 mm 2 mps 754 mmHg 62%
20:00 +13°C° 0 mm 2 mps 754 mmHg 64%
21:00 +12°C° 0 mm 2 mps 754 mmHg 67%
22:00 +12°C° 0 mm 2 mps 754 mmHg 69%
23:00 +10°C° 0 mm 2 mps 754 mmHg 72%

Day after tomorrow, 23 April, Friday

Time Temperature Precipitation Wind Pressure Humidity
00:00 +10°C° 0 mm 2 mps 753 mmHg 75%
01:00 +10°C° 0 mm 2 mps 753 mmHg 74%
02:00 +10°C° 0 mm 2 mps 753 mmHg 74%
03:00 +10°C° 0 mm 2 mps 752 mmHg 74%
04:00 +10°C° 0 mm 2 mps 752 mmHg 74%
05:00 +10°C° 0 mm 2 mps 752 mmHg 74%
06:00 +10°C° 0 mm 2 mps 752 mmHg 75%
07:00 +10°C° 0.1 mm 2 mps 752 mmHg 77%
08:00 +12°C° 0.1 mm 2 mps 752 mmHg 79%
09:00 +12°C° 0.1 mm 2 mps 752 mmHg 80%
10:00 +13°C° 0.3 mm 2 mps 752 mmHg 85%
11:00 +13°C° 0.3 mm 2 mps 751 mmHg 89%
12:00 +14°C° 0.3 mm 2 mps 751 mmHg 93%
13:00 +14°C° 0.3 mm 2 mps 750 mmHg 94%
14:00 +14°C° 0.3 mm 2 mps 749 mmHg 95%
15:00 +13°C° 0.3 mm 3 mps 748 mmHg 96%
16:00 +14°C° 2.1 mm 2 mps 748 mmHg 97%
17:00 +14°C° 2.1 mm 2 mps 748 mmHg 97%
18:00 +14°C° 2.1 mm 1 mps 747 mmHg 98%
19:00 +14°C° 5.4 mm 2 mps 747 mmHg 98%
20:00 +13°C° 5.4 mm 3 mps 747 mmHg 98%
21:00 +13°C° 5.4 mm 4 mps 746 mmHg 99%
22:00 +14°C° 1.1 mm 3 mps 746 mmHg 98%
23:00 +14°C° 1.1 mm 3 mps 745 mmHg 98%

24 April, Saturday

Time Temperature Precipitation Wind Pressure Humidity
00:00 +15°C° 1.1 mm 2 mps 745 mmHg 98%
01:00 +15°C° 0.6 mm 2 mps 744 mmHg 98%
02:00 +15°C° 0.6 mm 2 mps 744 mmHg 98%
03:00 +14°C° 0.6 mm 1 mps 743 mmHg 99%
04:00 +14°C° 0.4 mm 1 mps 743 mmHg 99%
05:00 +14°C° 0.4 mm 1 mps 743 mmHg 99%
06:00 +15°C° 0.4 mm 1 mps 743 mmHg 99%
07:00 +15°C° 0.4 mm 1 mps 744 mmHg 98%
08:00 +15°C° 0.4 mm 2 mps 744 mmHg 97%
09:00 +16°C° 0.4 mm 3 mps 745 mmHg 96%
10:00 +18°C° 0 mm 3 mps 745 mmHg 82%
11:00 +20°C° 0 mm 4 mps 745 mmHg 69%
12:00 +22°C° 0 mm 4 mps 745 mmHg 55%
13:00 +22°C° 0 mm 4 mps 746 mmHg 56%
14:00 +22°C° 0 mm 4 mps 746 mmHg 56%
15:00 +22°C° 0 mm 4 mps 746 mmHg 57%
16:00 +20°C° 0 mm 4 mps 747 mmHg 63%
17:00 +19°C° 0 mm 4 mps 748 mmHg 68%
18:00 +17°C° 0 mm 4 mps 749 mmHg 74%
19:00 +16°C° 0 mm 3 mps 750 mmHg 74%
20:00 +14°C° 0 mm 3 mps 750 mmHg 74%
21:00 +13°C° 0 mm 3 mps 751 mmHg 74%
22:00 +13°C° 0 mm 2 mps 752 mmHg 80%
23:00 +11°C° 0 mm 1 mps 752 mmHg 86%

25 April, Sunday

Time Temperature Precipitation Wind Pressure Humidity
00:00 +10°C° 0 mm 1 mps 752 mmHg 92%
01:00 +9°C° 0 mm 1 mps 752 mmHg 92%
02:00 +9°C° 0 mm 1 mps 752 mmHg 93%
03:00 +9°C° 0 mm 1 mps 752 mmHg 94%
04:00 +9°C° 0 mm 1 mps 753 mmHg 94%
05:00 +8°C° 0 mm 1 mps 753 mmHg 94%
06:00 +7°C° 0 mm 0 mps 753 mmHg 93%
07:00 +11°C° 0 mm 1 mps 754 mmHg 82%
08:00 +14°C° 0 mm 1 mps 754 mmHg 71%
09:00 +16°C° 0 mm 2 mps 754 mmHg 60%
10:00 +18°C° 0 mm 2 mps 753 mmHg 55%
11:00 +19°C° 0 mm 2 mps 753 mmHg 50%
12:00 +21°C° 0 mm 2 mps 753 mmHg 46%
13:00 +22°C° 0 mm 3 mps 752 mmHg 45%
14:00 +22°C° 0 mm 3 mps 751 mmHg 44%
15:00 +24°C° 0 mm 3 mps 751 mmHg 43%
16:00 +22°C° 0 mm 3 mps 751 mmHg 50%
17:00 +21°C° 0 mm 3 mps 751 mmHg 58%
18:00 +19°C° 0 mm 3 mps 751 mmHg 65%
19:00 +17°C° 0 mm 2 mps 751 mmHg 73%
20:00 +15°C° 0 mm 2 mps 751 mmHg 80%
21:00 +13°C° 0 mm 2 mps 751 mmHg 88%
22:00 +13°C° 0 mm 1 mps 751 mmHg 89%
23:00 +13°C° 0 mm 1 mps 751 mmHg 91%

26 April, Monday

Time Temperature Precipitation Wind Pressure Humidity
00:00 +12°C° 0 mm 1 mps 751 mmHg 93%
01:00 +12°C° 0 mm 1 mps 751 mmHg 94%
02:00 +12°C° 0 mm 1 mps 751 mmHg 95%
03:00 +11°C° 0 mm 1 mps 750 mmHg 95%
04:00 +12°C° 0 mm 1 mps 751 mmHg 95%
05:00 +12°C° 0 mm 1 mps 751 mmHg 95%
06:00 +12°C° 0 mm 1 mps 751 mmHg 94%
07:00 +15°C° 0 mm 2 mps 751 mmHg 85%
08:00 +18°C° 0 mm 2 mps 751 mmHg 75%
09:00 +20°C° 0 mm 3 mps 751 mmHg 65%
10:00 +22°C° 0 mm 3 mps 751 mmHg 59%
11:00 +25°C° 0 mm 4 mps 750 mmHg 52%
12:00 +27°C° 0 mm 5 mps 750 mmHg 46%
13:00 +28°C° 0 mm 5 mps 749 mmHg 46%
14:00 +28°C° 0 mm 5 mps 749 mmHg 46%
15:00 +28°C° 0 mm 5 mps 748 mmHg 46%
16:00 +27°C° 0 mm 4 mps 748 mmHg 54%
17:00 +25°C° 0 mm 3 mps 748 mmHg 61%
18:00 +22°C° 0 mm 3 mps 748 mmHg 69%
19:00 +21°C° 0 mm 3 mps 748 mmHg 73%
20:00 +20°C° 0 mm 3 mps 748 mmHg 78%
21:00 +19°C° 0 mm 3 mps 749 mmHg 82%
22:00 +18°C° 0 mm 2 mps 748 mmHg 84%
23:00 +18°C° 0 mm 2 mps 748 mmHg 87%
Show more